Simultaneous Nadir Overpasses (SNOs) Predictions

Prediction of SNOs between LANDSAT-8 and TERRA Satellite Orbit:

Table of predicted SNOs for the next 14.0 days since TLE Epoch: 2/1/2025
Index Date (LANDSAT-8) Time (LANDSAT-8) Lat,Lon (LANDSAT-8) SZA (LANDSAT-8 ) Date (TERRA) Time (TERRA) Lat,Lon (TERRA) SZA (TERRA ) Distance(km) Time Diff (sec)
1 02/09/2025 00:42:34 -81.84, 53.22 79.52 02/09/2025 00:43:48 -81.87, 53.17 79.47 3.48 74
2 02/09/2025 01:31:58 81.84,-138.14 100.59 02/09/2025 01:33:04 81.83,-137.94 100.65 3.16 66
3 02/09/2025 02:21:25 -81.84, 29.37 79.44 02/09/2025 02:22:25 -81.84, 29.57 79.38 3.18 60
4 02/09/2025 03:10:51 81.84,-162.85 100.57 02/09/2025 03:11:44 81.84,-162.81 100.61 0.82 53
5 02/09/2025 04:00:17 -81.84, 5.09 79.41 02/09/2025 04:01:04 -81.83, 5.13 79.38 0.63 47
6 02/09/2025 04:49:43 81.83, 172.87 100.61 02/09/2025 04:50:23 81.83, 172.75 100.61 1.94 40
7 02/09/2025 05:39:10 -81.84, -19.62 79.43 02/09/2025 05:39:44 -81.84, -19.74 79.42 1.95 34
8 02/09/2025 06:28:36 81.83, 148.17 100.59 02/09/2025 06:29:02 81.83, 148.31 100.61 2.37 26
9 02/09/2025 07:18:03 -81.83, -44.32 79.45 02/09/2025 07:18:23 -81.83, -44.18 79.42 2.27 20
10 02/09/2025 08:07:29 81.83, 123.46 100.56 02/09/2025 08:07:42 81.83, 123.44 100.57 0.27 13
11 02/09/2025 08:56:56 -81.83, -69.03 79.47 02/09/2025 08:57:03 -81.84, -69.04 79.46 0.41 7
12 02/09/2025 09:46:22 81.83, 98.75 100.54 02/09/2025 09:46:22 81.84, 98.58 100.53 2.79 0
13 02/09/2025 10:35:48 -81.83, -93.31 79.44 02/09/2025 10:35:42 -81.83, -93.49 79.46 2.84 6
14 02/09/2025 11:25:15 81.83, 74.04 100.52 02/09/2025 11:25:01 81.83, 74.14 100.53 1.45 14
15 02/09/2025 12:14:42 -81.83,-118.44 79.51 02/09/2025 12:14:22 -81.84,-118.35 79.51 1.47 20
16 02/09/2025 13:04:08 81.83, 49.34 100.50 02/09/2025 13:03:41 81.84, 49.27 100.48 1.17 27
17 02/09/2025 13:53:34 -81.83,-142.72 79.48 02/09/2025 13:53:01 -81.83,-142.80 79.50 1.18 33
18 02/09/2025 14:43:01 81.83, 24.63 100.48 02/09/2025 14:42:20 81.83, 24.83 100.49 3.13 41
19 02/09/2025 15:32:28 -81.83,-167.86 79.55 02/09/2025 15:31:41 -81.84,-167.66 79.55 3.12 47
20 02/09/2025 16:21:54 81.83, -0.08 100.46 02/09/2025 16:21:00 81.84, -0.04 100.44 0.79 54
21 02/09/2025 17:11:20 -81.83, 167.86 79.52 02/09/2025 17:10:20 -81.83, 167.89 79.55 0.57 60
22 02/09/2025 18:00:46 81.83, -24.36 100.49 02/09/2025 17:59:39 81.83, -24.48 100.44 1.98 67



Historial Predications of SNOs between LANDSAT-8 and TERRA
